Regional Weather Roundup
Issued by NWS

Home | Current Version | Previous Version | Text Only | Print | Product List | Glossary Off
Versions: 1 2 3 4 5 6 7 8 9 10 11 12 13 14 15 16 17 18 19 20 21 22 23 24 25 26 27 28 29 30 31 32 33 34 35 36 37 38 39 40 41 42 43 44 45 46 47 48 49 50

000
ASUS43 KFSD 221410
RWRSD

WEATHER ROUNDUP FOR SOUTH DAKOTA
NATIONAL WEATHER SERVICE SIOUX FALLS SD
900 AM CDT MON SEP 22 2014

NOTE: "FAIR" INDICATES FEW OR NO CLOUDS BELOW 12,000 FEET WITH NO
SIGNIFICANT WEATHER AND/OR OBSTRUCTIONS TO VISIBILITY.


SDZ001>005-009-010-012>017-221500-
NORTHWEST AND NORTH CENTRAL SOUTH DAKOTA

CITY           SKY/WX    TMP DP  RH WIND       PRES   REMARKS
BUFFALO          N/A     53  39  59 SE6       29.99F
FAITH            N/A     55  41  59 SE13      30.09F
MOBRIDGE       SUNNY     53  49  86 SE10      30.12F
$$

SDZ012>016-024>037-041>051-057-063-072>074-221500-
SOUTHWEST AND SOUTH CENTRAL SOUTH DAKOTA

CITY           SKY/WX    TMP DP  RH WIND       PRES   REMARKS
RAPID CTY ARPT CLOUDY    54  41  61 SE8       30.09F
PIERRE         SUNNY     55  44  66 SE10      30.15F
CUSTER         PTSUNNY   54  39  57 SW3       30.17F
ELLSWORTH AFB  PTSUNNY   56  41  56 S17       30.07F
PHILIP         PTSUNNY   53  44  71 E5        30.11F
PINE RIDGE     CLOUDY    62  42  47 S16G23    30.12F
WINNER         FAIR      60  44  55 S21       30.19F
$$

SDZ004>011-016>023-039-040-221500-
NORTHEAST SOUTH DAKOTA

CITY           SKY/WX    TMP DP  RH WIND       PRES   REMARKS
ABERDEEN       SUNNY     48  44  86 S7        30.21F
WATERTOWN      SUNNY     49  46  90 S7        30.25S
SISSETON         N/A     59  48  67 W13       30.20F
$$

SDZ017-020-022-023-036>040-048>070-221500-
SOUTHEAST SOUTH DAKOTA

CITY           SKY/WX    TMP DP  RH WIND       PRES   REMARKS
SIOUX FALLS    MOSUNNY   54  49  83 CALM      30.28S
HURON          SUNNY     49  44  83 SE5       30.23F
CHAMBERLAIN    SUNNY     53  47  82 SE6       30.21F
MITCHELL       SUNNY     50  47  89 SE3       30.25F
YANKTON        PTSUNNY   46  45  93 CALM      30.28F VSB 3/4
$$

ABBREVIATIONS USED IN REMARKS
   TC - TEMPERATURE IN CELSIUS
  WCI - WIND CHILL INDEX
   HX - HEAT INDEX
  VSB - VISIBILITY




USA.gov is the U.S. government's official web portal to all federal, state and local government web resources and services.